User: anonymous   Login
Location: ???????
(55.4362°N, 38.1183°E)
Time: 21:31:01
(UTC+00:00)
Language:

Cosmos 1953 Rocket - Orbit

View from above orbital plane
View from above orbital plane
View from above satellite
View from above satellite

Ground track
Ground track

The orbit data is extracted from the following two-line orbital elements,

1 19211U 88050B   21266.84438207  .00000132  00000-0  13153-4 0  9991
2 19211  82.5294 183.5340 0022421  21.4826 338.7324 14.83126688776876
Epoch (UTC): 23 September 2021 20:15:54
Eccentricity: 0.0022421
inclination: 82.5294°
perigee height: 604 km
apogee height: 635 km
right ascension of ascending node: 183.5340°
argument of perigee: 21.4826°
revolutions per day: 14.83126688
mean anomaly at epoch: 338.7324°
orbit number at epoch: 77687

The dashed part of the orbit path shows where the satellite is in the earth's shadow,  

DLR